Simultaneous Nadir Overpasses (SNOs) Predictions

Prediction of SNOs between FY3D and AQUA Satellite Orbit:

Table of predicted SNOs for the next 14.0 days since TLE Epoch: 4/5/2025
Index Date (FY3D) Time (FY3D) Lat,Lon (FY3D) SZA (FY3D ) Date (AQUA) Time (AQUA) Lat,Lon (AQUA) SZA (AQUA ) Distance(km) Time Diff (sec)
1 04/05/2025 07:38:18 -79.45,-127.40 106.52 04/05/2025 07:38:17 -79.46,-127.50 106.51 2.03 1
2 04/07/2025 17:09:10 -79.60, 88.57 107.22 04/07/2025 17:09:52 -79.60, 88.64 107.24 1.64 42
3 04/07/2025 17:59:47 79.34,-101.74 72.41 04/07/2025 17:59:04 79.35,-101.86 72.43 2.79 43
4 04/10/2025 03:30:39 79.53, 113.90 71.77 04/10/2025 03:30:37 79.53, 114.03 71.76 2.71 2
5 04/12/2025 13:01:26 79.55, -28.89 70.91 04/12/2025 13:02:05 79.56, -29.00 70.91 2.42 39
6 04/12/2025 13:52:03 -79.33, 140.37 109.41 04/12/2025 13:51:17 -79.33, 140.29 109.39 1.80 46
7 04/14/2025 23:22:54 -79.48, -3.57 110.08 04/14/2025 23:22:46 -79.47, -3.50 110.09 1.66 8
8 04/17/2025 08:53:43 -79.58,-147.05 110.81 04/17/2025 08:54:12 -79.57,-147.01 110.82 0.87 29



Historial Predications of SNOs between FY3D and AQUA
